Location: Boda
(47.1872°N, 9.5454°E)
Time: 07:54:50
(UTC+00:00)

CBERS-1 - Pass Details

Date: 14 May 2021
Orbit: 769 x 777 km, 98.7° (Epoch: 16 June)

Event Time Altitude Azimuth Distance (km) Brightness Sun altitude
Rises 01:43:25 0° 17° (NNE) 3,254 8.7 -16.5°
Reaches altitude 10° 01:45:46 10° 21° (NNE) 2,323 7.7 -16.3°
Maximum altitude 01:50:51 62° 101° (ESE) 870 4.4 -15.8°
Enters shadow 01:54:50 16° 180° (S) 1,909 5.6 -15.3°
